Home   Weather   Istanbul   Past weeks

Flag for Turkey Past Weather in Istanbul, Turkey — Yesterday and Last 2 Weeks

Now
70 °F

Passing clouds.


Feels Like: 70 °F
Forecast: 56 / 73 °F
Wind: 10 mph from East

Location: Istanbul Ataturk Airport

Current Time: Sep 28, 2016 at 8:19:49 PM

Latest Report: Sep 28, 2016 at 7:50 PM


Visibility: N/A

Pressure: 30.33 "Hg

Humidity: 46%

Dew Point: 48 °F

Location of IstanbulLocation

Past Weather in Istanbul — Graph

°F

Istanbul Temperature Yesterday

Maximum temperature yesterday: 70 °F (at 11:50 AM)
Minimum temperature yesterday: 59 °F (at 1:50 AM)
Average temperature yesterday: 64 °F

High & Low Weather Summary for the Past Weeks

 TemperatureHumidityPressure
High90 °F (Sep 18, 5:50 PM)88% (Sep 14, 7:20 AM)30.36 "Hg (Sep 14, 7:20 AM)
Low54 °F (Sep 23, 7:20 AM)25% (Sep 18, 2:50 PM)29.65 "Hg (Sep 19, 4:00 PM)
Average70 °F62%30.02 "Hg
* Reported Sep 13 6:20 PM — Sep 28 6:50 PM, Istanbul, Weather by CustomWeather, © 2016

Note: Actual official high and low records may vary slightly from our data, if they occured in-between our weather recording intervals... More about our weather records

Advertising

Istanbul Weather History for the Previous 24 Hours

Scroll right to see more
 ConditionsComfort  
Time TempWeatherWind HumidityBarometerVisibility
6:50 PM
Wed, Sep 28
68 °FPassing clouds.12 mph49%30.33 "HgN/A
6:20 PM70 °FScattered clouds.12 mph46%30.33 "HgN/A
5:50 PM70 °FPassing clouds.12 mph46%30.33 "HgN/A
5:20 PM72 °FScattered clouds.10 mph44%30.33 "HgN/A
4:50 PM72 °FScattered clouds.10 mph41%30.33 "HgN/A
4:20 PM73 °FScattered clouds.10 mph38%30.33 "HgN/A
3:50 PM73 °FScattered clouds.10 mph38%30.33 "HgN/A
3:20 PM72 °FScattered clouds.13 mph44%30.33 "HgN/A
2:50 PM73 °FScattered clouds.15 mph41%30.33 "HgN/A
2:20 PM73 °FScattered clouds.16 mph38%30.33 "HgN/A
1:50 PM73 °FScattered clouds.14 mph41%30.33 "HgN/A
1:20 PM72 °FScattered clouds.16 mph44%30.36 "HgN/A
12:50 PM72 °FPassing clouds.16 mph44%30.36 "HgN/A
12:20 PM72 °FPassing clouds.15 mph44%30.36 "HgN/A
11:50 AM70 °FScattered clouds.17 mph50%30.33 "HgN/A
11:20 AM70 °FScattered clouds.14 mph50%30.33 "HgN/A
10:50 AM68 °FScattered clouds.13 mph56%30.33 "HgN/A
10:20 AM68 °FScattered clouds.13 mph56%30.33 "HgN/A
9:50 AM68 °FScattered clouds.10 mph56%30.33 "HgN/A
9:20 AM68 °FScattered clouds.8 mph56%30.33 "HgN/A
8:50 AM66 °FScattered clouds.6 mph60%30.33 "HgN/A
8:20 AM68 °FScattered clouds.5 mph56%30.30 "HgN/A
7:50 AM64 °FScattered clouds.7 mph64%30.30 "HgN/A
7:20 AM64 °FScattered clouds.5 mph64%30.30 "HgN/A
6:50 AM63 °FPassing clouds.6 mph73%30.27 "HgN/A
6:20 AM63 °FPassing clouds.2 mph77%30.27 "HgN/A
5:50 AM63 °FPassing clouds.3 mph77%30.27 "HgN/A
5:20 AM64 °FPassing clouds.6 mph73%30.27 "HgN/A
4:50 AM64 °FPassing clouds.7 mph68%30.27 "HgN/A
4:20 AM64 °FPassing clouds.7 mph68%30.27 "HgN/A
3:50 AM64 °FPassing clouds.10 mph68%30.27 "HgN/A
2:50 AM63 °FPassing clouds.8 mph68%30.27 "HgN/A
2:20 AM64 °FPassing clouds.10 mph64%30.27 "HgN/A
1:50 AM64 °FPassing clouds.7 mph60%30.27 "HgN/A
1:20 AM64 °FPassing clouds.6 mph64%30.27 "HgN/A
12:50 AM64 °FPassing clouds.8 mph64%30.27 "HgN/A
12:20 AM63 °FPassing clouds.7 mph68%30.27 "HgN/A
11:50 PM
Tue, Sep 27
64 °FPassing clouds.6 mph60%30.27 "HgN/A
11:20 PM64 °FPassing clouds.7 mph60%30.27 "HgN/A
10:50 PM63 °FPassing clouds.9 mph64%30.27 "HgN/A
10:20 PM64 °FPassing clouds.12 mph60%30.24 "HgN/A
9:50 PM64 °FPassing clouds.10 mph60%30.24 "HgN/A
9:20 PM64 °FPassing clouds.10 mph60%30.24 "HgN/A
8:50 PM63 °FPartly cloudy.12 mph59%30.24 "HgN/A
8:20 PM63 °FPartly cloudy.14 mph59%30.24 "HgN/A
Weather by CustomWeather, © 2016

See weather overviewHow to use our weather pages